Wind_Speed
46 49 51 48 47 43 45 48 43 45 44 40 34 31 32 34 37 38 39 39 39 40 39 39 39 40 42 43 42 43 42 38 41 42 39 39 41 40 37 35 37 38 35
49 52 49 51 46 46 49 52 50 46 46 45 42 35 35 35 39 41 40 40 42 42 40 40 41 42 44 43 45 47 44 46 48 50 46 44 47 48 47 43 43 42 40
52 50 49 50 51 49 49 53 53 52 51 47 46 43 39 39 43 45 44 43 43 44 45 46 47 46 47 49 49 49 52 52 53 52 52 51 51 53 52 49 48 49 50
53 54 54 56 51 49 55 55 55 52 51 48 44 46 42 40 40 39 42 40 42 45 46 45 46 48 51 53 53 52 55 59 56 54 54 56 58 57 55 55 56 56 56
56 56 54 56 52 52 54 57 58 54 52 49 45 46 45 41 39 39 41 43 45 47 49 49 51 53 55 55 56 58 61 61 58 59 61 61 60 59 60 61 63 63 63
56 60 56 59 57 56 55 56 56 56 54 51 47 48 48 45 41 41 40 41 44 47 51 53 54 56 56 60 62 63 61 62 64 63 63 63 65 67 69 71 73 73 73
60 62 58 60 62 60 57 56 55 56 57 54 50 47 48 48 48 46 41 44 47 51 53 56 57 58 59 60 60 58 59 59 61 60 62 65 68 70 72 73 76 77 79
68 66 65 60 62 60 56 57 57 56 57 57 56 53 52 53 52 51 50 50 52 54 56 58 59 61 61 61 63 63 62 64 64 66 68 70 69 70 73 76 78 79 81
67 67 66 59 61 62 61 56 58 57 57 55 56 57 54 55 55 54 54 55 57 58 59 61 63 66 65 66 66 69 70 72 71 74 74 75 77 76 79 80 80 80 83
69 66 68 63 62 62 64 59 59 59 61 61 66 63 62 59 57 54 55 58 59 60 62 65 67 68 68 69 74 74 75 76 77 79 83 84 85 86 87 87 85 82 82
70 69 71 70 67 67 66 61 61 63 66 65 65 61 60 60 62 64 63 64 67 68 69 70 72 72 73 76 78 81 82 83 86 87 90 91 92 94 98 92 84 82 81
76 72 72 73 73 71 67 70 69 65 66 66 65 64 64 63 65 64 65 65 67 70 73 78 79 80 81 82 82 86 88 90 94 95 96 98 101 100 97 96 87 86 88
86 83 79 79 78 73 76 70 72 72 68 69 70 70 69 69 68 69 72 75 78 80 85 84 84 83 83 85 88 95 97 95 96 97 97 101 101 100 98 93 95 97 100
82 80 81 83 82 81 78 78 75 74 74 72 74 76 78 79 80 81 80 83 86 88 91 94 94 93 93 91 98 99 95 99 99 99 101 96 96 98 96 97 100 100 101
82 81 85 87 83 87 85 80 86 84 84 85 86 85 83 82 83 88 84 84 91 95 98 98 99 97 96 100 94 97 98 99 104 100 99 103 101 98 99 104 100 98 97
94 95 94 90 89 87 88 85 86 84 90 94 91 94 99 95 96 90 89 89 91 95 98 99 100 103 105 102 102 104 102 97 96 100 100 100 98 100 102 96 94 91 98
104 105 105 104 99 97 94 98 94 90 93 93 95 99 100 104 102 101 103 96 96 101 109 111 111 111 109 107 108 100 95 94 99 104 101 100 100 98 94 90 87 88 92
97 102 105 108 110 111 109 108 105 101 103 102 103 102 107 106 108 106 111 111 113 113 118 123 120 120 111 101 94 93 93 97 104 100 101 99 96 95 88 81 78 83 82
102 105 108 110 113 118 116 116 118 116 115 111 113 112 115 116 115 118 120 123 119 116 120 117 112 100 94 92 93 94 97 100 100 98 95 92 91 90 77 68 75 78 72
102 102 101 102 105 107 109 112 115 118 118 118 119 121 125 123 123 119 123 121 117 111 104 100 99 96 97 97 96 96 95 91 92 89 89 87 89 87 77 64 71 75 67
101 94 92 94 96 93 97 99 99 101 101 104 106 108 111 118 116 114 108 104 101 99 96 94 94 93 93 92 89 86 86 87 86 86 85 85 88 83 76 68 69 72 62
87 86 84 81 81 82 86 88 89 89 87 92 92 96 99 99 98 93 89 90 90 91 90 88 89 89 86 84 84 85 84 81 86 85 85 88 88 85 71 70 67 69 59
82 82 80 74 68 69 74 77 78 78 78 81 85 82 88 85 83 80 79 77 77 78 80 82 81 82 82 84 82 82 80 85 83 86 88 91 89 83 72 67 67 64 56
72 73 70 65 61 62 62 64 66 69 70 74 76 75 77 79 75 73 72 73 75 74 75 78 78 80 80 80 79 81 83 83 84 89 91 94 89 79 74 67 64 60 53
68 68 65 61 60 58 57 57 57 58 61 64 68 68 70 72 67 67 68 67 67 69 71 74 75 74 76 79 82 84 82 84 88 89 93 90 86 80 73 65 61 56 51
64 60 56 54 53 50 51 51 51 52 55 60 58 60 64 65 62 62 62 63 66 68 66 67 71 73 75 76 77 82 86 87 90 90 89 84 83 80 70 59 56 53 49
Wind_Direction
303 300 308 310 306 303 297 287 293 298 301 297 289 276 266 267 268 265 263 264 266 266 265 266 267 269 269 271 276 281 280 281 282 288 287 286 287 288 284 277 277 278 281
297 298 304 307 302 299 291 286 283 286 294 296 291 285 271 264 263 264 263 266 269 269 270 270 269 270 274 274 278 280 281 278 281 286 289 287 290 291 290 284 279 278 279
296 295 297 299 301 290 288 284 282 282 281 288 291 289 281 267 262 262 262 265 267 269 268 266 269 272 273 274 275 274 274 278 281 284 286 287 289 289 286 283 281 279 278
291 292 294 296 296 291 279 282 284 282 279 278 284 287 283 274 266 264 263 261 260 261 264 265 266 266 267 271 274 276 276 282 284 282 283 285 285 283 282 279 278 278 277
288 291 288 290 286 282 274 279 284 282 279 275 277 279 280 277 270 269 269 266 265 263 265 267 267 268 269 272 274 277 279 281 281 281 283 284 283 283 281 280 278 279 278
288 286 283 279 282 278 274 276 279 281 275 273 274 276 276 275 273 268 269 270 270 266 264 266 266 267 269 270 273 276 277 278 281 284 285 284 282 280 278 276 275 275 275
283 278 281 277 275 276 276 276 278 280 277 271 272 276 277 275 273 270 265 262 262 263 263 264 266 268 270 271 273 274 276 279 280 281 281 281 282 282 281 280 279 278 278
282 276 280 276 271 272 274 276 275 277 277 277 272 280 279 274 269 269 267 264 261 262 264 267 269 271 274 276 277 277 277 278 278 280 281 283 287 286 284 283 281 280 279
274 272 275 279 276 273 272 274 276 276 276 276 275 278 277 275 271 271 274 276 276 274 273 275 276 276 278 279 283 284 281 280 281 281 282 286 287 292 291 288 285 282 281
271 272 272 272 276 275 273 269 270 270 271 271 270 275 275 274 270 270 273 275 276 278 277 278 278 279 280 279 285 284 285 285 283 284 286 287 288 292 292 292 285 283 282
272 274 275 273 272 274 268 265 268 268 268 270 270 274 276 274 273 270 278 279 278 279 278 278 279 278 278 280 286 288 289 288 288 286 288 288 290 291 291 291 288 281 282
269 269 272 270 271 271 266 265 266 268 267 268 268 270 272 272 275 272 273 275 279 279 279 279 281 281 281 284 288 295 294 294 291 289 288 288 289 290 291 292 292 289 287
271 267 266 267 267 271 262 262 263 264 265 265 268 270 269 269 272 274 274 276 278 280 280 280 282 282 285 286 289 294 293 291 288 287 288 288 289 291 292 291 290 290 286
268 267 270 271 267 264 261 258 261 262 261 263 265 267 265 267 270 271 273 277 276 279 281 281 282 280 284 289 290 293 289 288 288 285 287 289 288 289 290 290 288 286 283
270 267 265 267 266 265 266 261 255 258 259 260 264 267 266 268 272 267 269 272 272 275 275 279 278 281 284 287 287 286 282 282 281 283 286 286 287 288 288 286 285 286 287
275 275 275 270 267 264 262 264 263 261 260 259 263 266 267 271 273 274 274 270 270 274 273 278 278 278 284 285 281 279 280 280 279 285 287 286 287 288 289 286 289 290 283
269 267 267 265 266 267 268 269 268 264 260 263 265 265 266 267 271 273 275 273 270 274 279 282 280 281 283 284 286 280 280 278 278 284 287 287 289 287 288 291 293 289 286
268 268 268 267 264 264 262 264 263 263 264 261 261 264 263 264 266 268 268 271 276 276 278 277 280 283 281 283 282 281 277 279 281 286 287 287 287 288 292 296 294 289 291
270 268 266 266 267 265 264 264 264 263 261 260 262 262 264 263 265 267 271 273 276 277 278 280 281 280 280 279 279 279 278 283 286 284 285 287 288 291 296 300 293 294 294
275 275 276 274 271 270 269 267 265 263 263 262 260 262 263 265 265 268 272 272 273 275 275 274 273 275 275 277 279 279 282 282 284 284 286 289 293 295 302 298 297 294 293
277 277 275 272 272 272 271 269 268 267 265 264 263 262 263 264 266 267 268 269 270 269 271 270 271 273 275 278 279 280 281 281 284 286 288 294 295 300 303 300 299 296 292
280 279 275 273 273 271 268 268 266 266 264 262 261 261 261 263 262 265 265 264 265 265 266 268 270 272 275 277 278 281 282 284 285 288 291 293 297 300 301 302 301 295 292
282 280 279 278 273 269 266 264 264 263 261 261 260 259 260 261 262 263 262 263 263 263 264 265 268 271 274 276 278 281 281 283 286 288 290 293 297 299 302 299 299 292 289
282 280 280 280 278 272 267 264 262 260 258 256 259 258 259 261 260 260 262 262 261 262 262 264 265 267 271 274 275 277 280 281 284 287 290 292 297 299 298 300 296 289 286
284 282 281 279 276 274 271 266 262 258 256 256 256 256 257 259 261 260 259 260 259 262 262 262 264 267 268 270 272 276 281 280 284 285 288 292 295 296 296 301 294 287 282
278 277 277 274 272 269 267 264 260 257 255 255 259 255 256 258 258 255 257 258 259 260 263 263 264 265 268 270 273 274 277 278 282 285 290 292 294 294 298 299 293 285 279
Height
10747 10743 10739 10736 10734 10731 10728 10726 10724 10720 10718 10716 10716 10715 10715 10714 10712 10712 10711 10712 10713 10713 10715 10715 10714 10713 10712 10711 10711 10710 10710 10711 10710 10710 10711 10711 10710 10710 10711 10712 10712 10711 10712
10737 10734 10730 10726 10723 10721 10719 10715 10714 10712 10710 10708 10707 10708 10707 10705 10703 10702 10702 10703 10705 10704 10704 10704 10704 10703 10703 10704 10703 10703 10702 10701 10700 10700 10700 10700 10699 10699 10701 10701 10701 10702 10702
10724 10723 10720 10716 10713 10710 10706 10703 10702 10700 10700 10699 10698 10699 10698 10695 10692 10692 10692 10693 10694 10693 10692 10693 10694 10694 10694 10694 10694 10691 10691 10691 10690 10689 10689 10688 10688 10687 10688 10689 10689 10689 10690
10712 10711 10708 10704 10701 10699 10694 10691 10688 10687 10687 10688 10689 10687 10686 10685 10683 10683 10682 10682 10680 10680 10680 10682 10684 10684 10682 10681 10680 10680 10679 10679 10678 10677 10676 10676 10675 10674 10675 10675 10676 10676 10678
10698 10696 10693 10689 10688 10687 10683 10680 10677 10676 10675 10676 10677 10676 10673 10674 10674 10674 10672 10671 10671 10670 10670 10670 10670 10670 10671 10670 10668 10668 10667 10666 10664 10662 10662 10662 10662 10661 10660 10661 10661 10662 10663
10684 10682 10679 10675 10673 10673 10670 10669 10667 10666 10664 10665 10664 10664 10663 10662 10661 10661 10661 10660 10660 10659 10658 10657 10656 10656 10657 10656 10656 10654 10652 10650 10648 10648 10647 10647 10647 10646 10645 10646 10645 10646 10646
10672 10668 10664 10662 10660 10660 10657 10656 10655 10655 10654 10653 10653 10651 10652 10650 10649 10647 10648 10647 10646 10645 10644 10643 10642 10641 10641 10640 10640 10639 10636 10635 10634 10634 10632 10631 10630 10629 10628 10627 10626 10626 10626
10656 10654 10651 10649 10647 10646 10645 10643 10642 10642 10642 10642 10640 10639 10639 10638 10636 10636 10635 10634 10633 10631 10630 10629 10627 10626 10624 10623 10624 10623 10622 10620 10620 10618 10616 10615 10613 10611 10611 10609 10607 10605 10603
10641 10640 10638 10636 10635 10633 10631 10629 10628 10628 10628 10628 10625 10626 10625 10624 10623 10622 10620 10619 10618 10617 10615 10613 10611 10609 10608 10608 10608 10606 10604 10604 10602 10600 10598 10596 10593 10593 10588 10586 10584 10582 10581
10625 10623 10621 10620 10620 10618 10617 10615 10613 10612 10612 10613 10612 10610 10610 10609 10608 10607 10606 10605 10604 10602 10600 10597 10595 10594 10593 10592 10590 10587 10586 10583 10581 10579 10578 10575 10572 10570 10565 10563 10560 10557 10555
10606 10606 10605 10604 10602 10602 10600 10598 10597 10596 10594 10594 10595 10594 10594 10593 10592 10591 10589 10588 10588 10586 10582 10579 10576 10576 10576 10574 10571 10569 10568 10564 10560 10557 10555 10551 10549 10545 10542 10543 10539 10533 10529
10586 10586 10585 10584 10583 10582 10582 10582 10581 10578 10576 10575 10575 10575 10575 10576 10574 10573 10572 10571 10569 10566 10564 10560 10558 10559 10558 10556 10553 10549 10546 10542 10539 10534 10530 10527 10523 10519 10515 10514 10508 10503 10499
10563 10564 10562 10560 10561 10561 10561 10560 10559 10559 10557 10555 10555 10554 10554 10554 10554 10553 10553 10551 10549 10547 10544 10539 10538 10538 10538 10537 10535 10531 10521 10515 10514 10508 10505 10501 10495 10492 10489 10484 10478 10475 10471
10543 10540 10539 10537 10538 10539 10539 10539 10537 10537 10537 10536 10534 10533 10533 10534 10534 10533 10532 10531 10529 10526 10521 10517 10515 10515 10516 10515 10513 10508 10503 10494 10491 10485 10482 10477 10471 10467 10464 10458 10453 10447 10438
10518 10516 10515 10515 10514 10515 10516 10516 10515 10514 10513 10514 10513 10512 10511 10511 10511 10511 10512 10510 10506 10503 10498 10495 10493 10494 10493 10492 10488 10487 10483 10475 10470 10465 10460 10454 10448 10442 10439 10431 10424 10417 10405
10486 10484 10484 10485 10487 10488 10490 10491 10492 10489 10489 10490 10490 10489 10487 10485 10486 10485 10487 10487 10486 10482 10476 10471 10469 10471 10474 10470 10467 10465 10459 10452 10445 10441 10437 10428 10423 10417 10410 10403 10395 10384 10368
10459 10458 10457 10457 10456 10457 10459 10460 10464 10465 10465 10464 10462 10462 10462 10460 10458 10457 10456 10458 10456 10457 10451 10447 10443 10447 10446 10441 10438 10437 10432 10428 10422 10415 10411 10401 10396 10389 10383 10377 10367 10353 10339
10425 10423 10423 10422 10424 10426 10428 10431 10433 10434 10436 10435 10435 10435 10435 10435 10433 10431 10429 10430 10429 10428 10427 10421 10418 10421 10417 10414 10412 10410 10407 10403 10398 10390 10383 10379 10371 10362 10360 10352 10339 10326 10315
10392 10393 10393 10392 10391 10392 10393 10395 10396 10398 10403 10405 10406 10405 10404 10407 10406 10406 10406 10402 10401 10399 10398 10396 10396 10392 10391 10390 10389 10389 10385 10379 10373 10367 10360 10354 10346 10339 10335 10330 10312 10305 10295
10360 10359 10359 10356 10354 10354 10355 10352 10355 10359 10363 10368 10373 10373 10371 10371 10374 10376 10375 10375 10374 10375 10374 10372 10371 10370 10368 10368 10366 10365 10361 10355 10349 10344 10339 10332 10324 10317 10311 10308 10295 10286 10278
10331 10331 10327 10321 10316 10322 10316 10313 10315 10320 10325 10328 10333 10334 10337 10334 10344 10345 10347 10348 10348 10348 10349 10349 10348 10347 10346 10344 10344 10342 10338 10333 10328 10323 10318 10313 10303 10298 10289 10283 10277 10266 10260
10299 10295 10293 10293 10292 10291 10285 10283 10283 10287 10291 10293 10298 10301 10303 10307 10311 10318 10321 10323 10323 10324 10326 10327 10327 10325 10324 10323 10322 10320 10317 10313 10306 10303 10297 10291 10284 10278 10272 10264 10260 10248 10244
10270 10263 10260 10263 10266 10263 10259 10257 10257 10260 10264 10266 10267 10275 10276 10282 10288 10294 10295 10298 10300 10302 10304 10304 10306 10304 10304 10303 10302 10298 10295 10292 10288 10282 10277 10271 10265 10261 10255 10249 10241 10233 10229
10246 10240 10238 10238 10238 10236 10235 10234 10234 10236 10240 10243 10246 10251 10257 10260 10267 10272 10274 10276 10279 10281 10283 10285 10285 10284 10284 10283 10281 10278 10276 10273 10269 10263 10257 10251 10247 10243 10237 10232 10224 10218 10213
10224 10219 10219 10218 10215 10214 10213 10212 10213 10216 10219 10223 10226 10233 10238 10241 10247 10251 10254 10257 10260 10262 10264 10264 10265 10266 10265 10264 10262 10259 10257 10253 10251 10244 10238 10233 10228 10224 10219 10215 10206 10202 10198
10205 10201 10200 10199 10197 10196 10194 10194 10195 10198 10201 10205 10211 10216 10219 10224 10227 10231 10235 10237 10240 10243 10245 10247 10246 10246 10246 10245 10243 10242 10237 10234 10230 10225 10220 10214 10209 10203 10201 10196 10190 10186 10184